This is the latest recevied weather packets stored in our database for station/object K4AGR-13. If no packets are shown the sender has not sent any weather packets the latest 10 day(s).
| Time | Temp. | Humidity | Pressure | Rain* | Wind** | Luminosity | Snow |
|---|---|---|---|---|---|---|---|
| 1777697907 | 13.89° C | 96% | 1012.8 hPa | 4.83 mm | - | 0 W/m² | - |
| 1777697603 | 13.89° C | 96% | 1012.7 hPa | 7.11 mm | - | 0 W/m² | - |
| 1777697301 | 13.89° C | 96% | 1013.8 hPa | 8.89 mm | - | 0 W/m² | - |
| 1777696997 | 13.89° C | 96% | 1013.6 hPa | 7.87 mm | - | 0 W/m² | - |
| 1777696694 | 13.89° C | 96% | 1013.2 hPa | 7.87 mm | - | 0 W/m² | - |
| 1777696391 | 13.89° C | 96% | 1013.6 hPa | 6.1 mm | - | 0 W/m² | - |
| 1777696091 | 13.89° C | 96% | 1013.1 hPa | 4.32 mm | - | 0 W/m² | - |
| 1777695789 | 13.89° C | 96% | 1013.7 hPa | 4.83 mm | - | 0 W/m² | - |
| 1777695486 | 13.89° C | 96% | 1012.9 hPa | 7.87 mm | - | 0 W/m² | - |
| 1777695183 | 13.89° C | 96% | 1012.7 hPa | 7.11 mm | - | 0 W/m² | - |
| 1777694880 | 13.89° C | 96% | 1012.2 hPa | 7.87 mm | - | 0 W/m² | - |
| 1777694577 | 13.89° C | 96% | 1012.7 hPa | 7.87 mm | - | 0 W/m² | - |
| 1777694273 | 13.89° C | 96% | 1013.4 hPa | 8.89 mm | - | 0 W/m² | - |
| 1777693970 | 13.89° C | 96% | 1013.1 hPa | 8.89 mm | - | 0 W/m² | - |
| 1777693667 | 13.89° C | 96% | 1013.2 hPa | 6.1 mm | - | 0 W/m² | - |
| 1777693365 | 13.89° C | 96% | 1013.2 hPa | 7.87 mm | - | 0 W/m² | - |
| 1777693063 | 13.89° C | 96% | 1013 hPa | 6.1 mm | - | 0 W/m² | - |
| 1777692761 | 13.89° C | 96% | 1013 hPa | 7.87 mm | - | 0 W/m² | - |
| 1777692457 | 13.89° C | 95% | 1012.5 hPa | 9.65 mm | - | 0 W/m² | - |
| 1777692153 | 13.89° C | 95% | 1011.9 hPa | 6.1 mm | - | 0 W/m² | - |
| 1777691852 | 13.89° C | 96% | 1012.1 hPa | 3.05 mm | - | 0 W/m² | - |
| 1777691549 | 13.89° C | 96% | 1012.7 hPa | 3.05 mm | - | 0 W/m² | - |
| 1777691248 | 13.89° C | 96% | 1012.8 hPa | 1.27 mm | - | 0 W/m² | - |
| 1777690945 | 13.89° C | 96% | 1012.6 hPa | 1.78 mm | - | 0 W/m² | - |
| 1777690648 | 13.89° C | 96% | 1012.2 hPa | 1.78 mm | - | 0 W/m² | - |
* Rain latest hour (hover to see other rain measurements)
** Current wind speed in m/s (hover to see current wind gust speed)